TimeEST,TemperatureF,Dew PointF,Humidity,Sea Level PressureIn,VisibilityMPH,Wind Direction,Wind SpeedMPH,Gust SpeedMPH,PrecipitationIn,Events,Conditions,WindDirDegrees,DateUTC
12:54 AM,15.1,-0.9,49,30.24,10.0,NW,11.5,23.0,N/A,,Clear,310,2013-01-27 05:54:00
1:54 AM,15.1,-0.0,51,30.26,10.0,WNW,11.5,21.9,N/A,,Clear,290,2013-01-27 06:54:00
2:54 AM,15.1,1.0,54,30.27,10.0,WNW,17.3,24.2,N/A,,Clear,300,2013-01-27 07:54:00
3:54 AM,15.1,1.0,54,30.29,10.0,WNW,15.0,21.9,N/A,,Clear,290,2013-01-27 08:54:00
4:54 AM,15.1,1.0,54,30.30,10.0,WNW,13.8,-,N/A,,Clear,300,2013-01-27 09:54:00
5:54 AM,15.1,1.0,54,30.30,10.0,WNW,15.0,-,N/A,,Partly Cloudy,290,2013-01-27 10:54:00
6:54 AM,14.0,1.0,56,30.33,10.0,West,10.4,-,N/A,,Partly Cloudy,280,2013-01-27 11:54:00
7:54 AM,15.1,-0.0,51,30.35,10.0,WNW,16.1,28.8,N/A,,Partly Cloudy,300,2013-01-27 12:54:00
8:54 AM,18.0,-0.9,44,30.37,10.0,WNW,16.1,25.3,N/A,,Partly Cloudy,300,2013-01-27 13:54:00
9:54 AM,21.0,-2.9,35,30.39,10.0,NW,23.0,27.6,N/A,,Partly Cloudy,310,2013-01-27 14:54:00
10:54 AM,24.1,-2.0,32,30.39,10.0,NW,17.3,24.2,N/A,,Partly Cloudy,320,2013-01-27 15:54:00
11:54 AM,27.0,-0.9,30,30.39,10.0,NW,15.0,21.9,N/A,,Partly Cloudy,310,2013-01-27 16:54:00
12:54 PM,28.0,-2.0,27,30.38,10.0,WNW,16.1,26.5,N/A,,Partly Cloudy,300,2013-01-27 17:54:00
1:54 PM,28.9,-2.0,26,30.37,10.0,NW,15.0,20.7,N/A,,Partly Cloudy,310,2013-01-27 18:54:00
2:54 PM,30.9,-2.9,23,30.37,10.0,WNW,10.4,19.6,N/A,,Clear,300,2013-01-27 19:54:00
3:54 PM,30.0,-2.9,24,30.37,10.0,WNW,15.0,-,N/A,,Clear,300,2013-01-27 20:54:00
4:54 PM,28.9,-2.9,25,30.40,10.0,WNW,12.7,-,N/A,,Partly Cloudy,300,2013-01-27 21:54:00
5:54 PM,28.0,-2.9,26,30.41,10.0,WNW,13.8,19.6,N/A,,Partly Cloudy,290,2013-01-27 22:54:00
6:54 PM,27.0,-6.0,24,30.43,10.0,WNW,15.0,21.9,N/A,,Partly Cloudy,300,2013-01-27 23:54:00
7:54 PM,26.1,-7.1,23,30.44,10.0,NW,9.2,20.7,N/A,,Partly Cloudy,320,2013-01-28 00:54:00
8:54 PM,25.0,-4.0,28,30.44,10.0,WNW,11.5,-,N/A,,Partly Cloudy,300,2013-01-28 01:54:00
9:54 PM,24.1,-4.0,29,30.45,10.0,WNW,10.4,-,N/A,,Partly Cloudy,290,2013-01-28 02:54:00
10:54 PM,23.0,-2.0,34,30.46,10.0,WNW,10.4,-,N/A,,Partly Cloudy,290,2013-01-28 03:54:00
11:54 PM,21.9,-0.9,37,30.46,10.0,WNW,9.2,-,N/A,,Scattered Clouds,290,2013-01-28 04:54:00